Ft Riley, KS

1:13 PM CDT on August 17, 2017 (GMT -0500)
Marshall Army Air Field

Weather History for KFRI - March, 2013

Change the Weather History Date:

Sunday, March 31, 2013

  Actual Average (KMHK) Record (KMHK)
Temperature  
Mean Temperature 54 °F -  
Max Temperature 64 °F 60 °F 109 °F (2004)
Min Temperature 43 °F 35 °F 26 °F (1997)
Degree Days  
Heating Degree Days 12    
Growing Degree Days 4 (Base 50)    
Moisture  
Dew Point 38 °F    
Average Humidity 62    
Maximum Humidity 100    
Minimum Humidity 24    
Precipitation  
Precipitation 0.04 in - - ()
Sea Level Pressure  
Sea Level Pressure 30.00 in    
Wind  
Wind Speed 6 mph (WNW)    
Max Wind Speed 15 mph    
Max Gust Speed 20 mph    
Visibility 10 miles    
Events Rain    
Averages and records for this station are not official NWS values.
T = Trace of Precipitation, MM = Missing Value Source: NWS Daily Summary

Daily Weather History Graph

Daily Weather History Graph

Search for Another Location

Airport or City:

Trip Planner

Search our weather history database for the weather conditions in past years. The results will help you decide how hot, cold, wet, or windy it might be!

Date:

Astronomy

Mar. 31, 2013 Rise Set
Actual Time 7:12 AM CDT 7:50 PM CDT
Civil Twilight 6:45 AM CDT 8:16 PM CDT
Nautical Twilight 6:14 AM CDT 8:48 PM CDT
Astronomical Twilight 5:41 AM CDT 9:21 PM CDT
Moon No Moon Rise 10:03 AM CDT (3/31)
Length of Visible Light 13h 31m
Length of Day
12h 37m
Waning Gibbous, 77% of the Moon is Illuminated
Mar 31
Waning Gibbous
Apr 2
Last Quarter
Apr 10
New
Apr 18
First Quarter
Apr 25
Full

Hourly Weather History & Observations

Time (CDT) Temp. Windchill Dew Point Humidity Pressure Visibility Wind Dir Wind Speed Gust Speed Precip Events Conditions
12:03 AM 53.6 °F - 44.6 °F 72% 29.99 in 10.0 mi West 5.8 mph - N/A   Light Drizzle
12:58 AM 52.2 °F - 48.7 °F 88% 30.00 in 10.0 mi West 1.2 mph - 0.00 in Rain Light Rain
1:58 AM 51.8 °F - 51.4 °F 99% 30.04 in 10.0 mi WNW 5.8 mph - 0.02 in Rain Light Rain
2:32 AM 50.0 °F - 50.0 °F 100% 30.03 in 10.0 mi West 2.3 mph - N/A   Overcast
2:58 AM 50.2 °F - 50.2 °F 100% 30.01 in 10.0 mi South 2.3 mph - 0.02 in   Overcast
3:58 AM 49.5 °F - 49.5 °F 100% 30.00 in 10.0 mi SSW 4.6 mph - N/A   Overcast
4:58 AM 47.1 °F - 47.1 °F 100% 30.00 in 10.0 mi SSW 3.5 mph - N/A   Clear
5:58 AM 43.5 °F 40.1 °F 43.5 °F 100% 30.01 in 10.0 mi SSW 5.8 mph - N/A   Clear
6:58 AM 44.2 °F - 44.2 °F 100% 30.01 in 10.0 mi West 2.3 mph - N/A   Clear
7:58 AM 43.0 °F 38.8 °F 43.0 °F 100% 30.02 in 10.0 mi SW 6.9 mph - N/A   Clear
8:58 AM 48.6 °F - 48.6 °F 100% 30.03 in 10.0 mi Variable 3.5 mph - N/A   Clear
9:58 AM 51.6 °F - 44.2 °F 76% 30.02 in 10.0 mi NW 8.1 mph 17.3 mph N/A   Clear
10:58 AM 55.6 °F - 43.3 °F 63% 30.02 in 10.0 mi NNW 10.4 mph - N/A   Clear
11:58 AM 59.4 °F - 39.7 °F 48% 30.02 in 10.0 mi NNW 10.4 mph 17.3 mph N/A   Clear
12:33 PM 60.8 °F - 35.6 °F 39% 30.02 in 10.0 mi North 13.8 mph 19.6 mph N/A   Clear
12:58 PM 61.2 °F - 32.5 °F 34% 30.01 in 10.0 mi NW 12.7 mph 19.6 mph N/A   Clear
1:14 PM 62.6 °F - 33.8 °F 34% 30.02 in 10.0 mi NW 12.7 mph 19.6 mph N/A   Clear
1:58 PM 62.1 °F - 31.5 °F 32% 30.00 in 10.0 mi NNW 12.7 mph 19.6 mph N/A   Clear
2:58 PM 64.4 °F - 30.6 °F 28% 29.99 in 10.0 mi North 15.0 mph 18.4 mph N/A   Clear
3:58 PM 63.5 °F - 29.7 °F 28% 29.97 in 10.0 mi North 9.2 mph - N/A   Clear
4:58 PM 63.7 °F - 28.6 °F 27% 29.97 in 10.0 mi North 8.1 mph - N/A   Clear
5:58 PM 63.9 °F - 26.6 °F 24% 29.96 in 10.0 mi NNW 4.6 mph - N/A   Clear
6:58 PM 62.6 °F - 25.3 °F 24% 29.96 in 10.0 mi NW 6.9 mph - N/A   Clear
7:58 PM 60.1 °F - 26.4 °F 28% 29.96 in 10.0 mi Calm Calm - N/A   Clear
8:58 PM 53.4 °F - 28.8 °F 39% 29.95 in 10.0 mi SE 5.8 mph - N/A   Clear
9:58 PM 53.2 °F - 29.1 °F 40% 29.94 in 10.0 mi SSE 8.1 mph - N/A   Clear
10:58 PM 49.5 °F - 32.2 °F 51% 29.97 in 10.0 mi NE 5.8 mph - N/A   Mostly Cloudy
11:58 PM 48.7 °F - 35.8 °F 61% 30.01 in 10.0 mi NNE 4.6 mph - N/A   Overcast